Houston, TX

6:45 PM CST on January 18, 2018 (GMT -0600)
Houston

Weather History for KTME - October, 2012

Change the Weather History Date:

Wednesday, October 31, 2012

  Actual Average (KSGR) Record (KSGR)
Temperature  
Mean Temperature 67 °F -  
Max Temperature 84 °F 77 °F 90 °F (1947)
Min Temperature 50 °F 56 °F 30 °F (1993)
Cooling Degree Days 2    
Growing Degree Days 17 (Base 50)    
Moisture  
Dew Point 58 °F    
Average Humidity 80    
Maximum Humidity 100    
Minimum Humidity 42    
Precipitation  
Precipitation 0.00 in - - ()
Sea Level Pressure  
Sea Level Pressure 30.02 in    
Wind  
Wind Speed 1 mph (WSW)    
Max Wind Speed 12 mph    
Max Gust Speed -    
Visibility 8 miles    
Events Fog    
Averages and records for this station are not official NWS values.
T = Trace of Precipitation, MM = Missing Value Source: NWS Daily Summary

Daily Weather History Graph

Daily Weather History Graph

Search for Another Location

Airport or City:

Trip Planner

Search our weather history database for the weather conditions in past years. The results will help you decide how hot, cold, wet, or windy it might be!

Date:

Astronomy

Oct. 31, 2012 Rise Set
Actual Time 7:36 AM CDT 6:37 PM CDT
Civil Twilight 7:12 AM CDT 7:01 PM CDT
Nautical Twilight 6:43 AM CDT 7:29 PM CDT
Astronomical Twilight 6:16 AM CDT 7:57 PM CDT
Moon 7:57 PM CDT (10/31) 9:10 AM CDT (10/31)
Length of Visible Light 11h 49m
Length of Day
11h 00m
Full, 97% of the Moon is Illuminated
Oct 31
Full
Nov 6
Last Quarter
Nov 13
New
Nov 20
First Quarter
Nov 28
Full

Hourly Weather History & Observations

Time (CDT) Temp. Heat Index Dew Point Humidity Pressure Visibility Wind Dir Wind Speed Gust Speed Precip Events Conditions
12:15 AM 57.2 °F - 55.4 °F 94% 30.03 in 10.0 mi Calm Calm - N/A   Scattered Clouds
12:35 AM 57.2 °F - 55.4 °F 94% 30.03 in 10.0 mi Calm Calm - N/A   Scattered Clouds
12:55 AM 57.2 °F - 55.4 °F 94% 30.03 in 10.0 mi Calm Calm - N/A   Scattered Clouds
1:15 AM 57.2 °F - 55.4 °F 94% 30.03 in 10.0 mi Calm Calm - N/A   Scattered Clouds
1:35 AM 55.4 °F - 55.4 °F 100% 30.03 in 9.0 mi Calm Calm - N/A   Scattered Clouds
1:55 AM 55.4 °F - 55.4 °F 100% 30.02 in 9.0 mi Calm Calm - N/A   Scattered Clouds
2:15 AM 55.4 °F - 55.4 °F 100% 30.03 in 7.0 mi Calm Calm - N/A   Partly Cloudy
2:35 AM 53.6 °F - 53.6 °F 100% 30.03 in 6.0 mi Calm Calm - N/A   Scattered Clouds
2:55 AM 55.4 °F - 55.4 °F 100% 30.03 in 7.0 mi Calm Calm - N/A   Scattered Clouds
3:15 AM 50.0 °F - 50.0 °F 100% 30.03 in 6.0 mi Calm Calm - N/A   Scattered Clouds
3:35 AM 53.6 °F - 53.6 °F 100% 30.02 in 5.0 mi Calm Calm - N/A   Scattered Clouds
3:55 AM 53.6 °F - 53.6 °F 100% 30.02 in 4.0 mi Calm Calm - N/A   Partly Cloudy
4:15 AM 53.6 °F - 53.6 °F 100% 30.02 in 7.0 mi Calm Calm - N/A   Partly Cloudy
4:35 AM 51.8 °F - 51.8 °F 100% 30.01 in 7.0 mi Calm Calm - N/A   Partly Cloudy
4:55 AM 50.0 °F - 50.0 °F 100% 30.01 in 5.0 mi Calm Calm - N/A   Scattered Clouds
5:15 AM 53.6 °F - 53.6 °F 100% 30.02 in 3.0 mi Calm Calm - N/A   Partly Cloudy
5:35 AM 51.8 °F - 51.8 °F 100% 30.01 in 5.0 mi Calm Calm - N/A   Clear
5:55 AM 53.6 °F - 53.6 °F 100% 30.01 in 5.0 mi Calm Calm - N/A   Clear
6:15 AM 50.0 °F - 50.0 °F 100% 30.02 in 4.0 mi Calm Calm - N/A   Clear
6:35 AM 51.8 °F - 51.8 °F 100% 30.02 in 1.2 mi Calm Calm - N/A   Clear
6:55 AM 50.0 °F - 50.0 °F 100% 30.02 in 1.2 mi Calm Calm - N/A   Clear
7:15 AM 50.0 °F - 50.0 °F 100% 30.02 in 0.8 mi Calm Calm - N/A   Mist
7:35 AM 50.0 °F - 50.0 °F 100% 30.03 in 0.2 mi Calm Calm - N/A Fog Fog
7:55 AM 50.0 °F - 50.0 °F 100% 30.04 in 4.0 mi Calm Calm - N/A   Clear
8:15 AM 53.6 °F - 53.6 °F 100% 30.05 in 4.0 mi Calm Calm - N/A   Clear
8:35 AM 55.4 °F - 55.4 °F 100% 30.06 in 5.0 mi Calm Calm - N/A   Clear
8:55 AM 59.0 °F - 59.0 °F 100% 30.06 in 5.0 mi Calm Calm - N/A   Clear
9:15 AM 62.6 °F - 62.6 °F 100% 30.07 in 8.0 mi Calm Calm - N/A   Clear
9:35 AM 66.2 °F - 64.4 °F 94% 30.07 in 9.0 mi Calm Calm - N/A   Clear
9:55 AM 68.0 °F - 64.4 °F 88% 30.07 in 10.0 mi Calm Calm - N/A   Clear
10:15 AM 69.8 °F - 64.4 °F 83% 30.07 in 10.0 mi Calm Calm - N/A   Clear
10:55 AM 75.2 °F - 64.4 °F 69% 30.08 in 10.0 mi SSW 8.1 mph - N/A   Clear
11:15 AM 75.2 °F - 66.2 °F 73% 30.08 in 10.0 mi SW 9.2 mph - N/A   Clear
11:35 AM 77.0 °F - 66.2 °F 69% 30.08 in 10.0 mi SW 9.2 mph - N/A   Clear
11:55 AM 78.8 °F - 66.2 °F 65% 30.07 in 10.0 mi WSW 9.2 mph - N/A   Clear
12:15 PM 78.8 °F - 64.4 °F 61% 30.07 in 10.0 mi WSW 11.5 mph - N/A   Scattered Clouds
12:55 PM 82.4 °F 83.4 °F 62.6 °F 51% 30.04 in 10.0 mi SW 9.2 mph - N/A   Partly Cloudy
1:15 PM 80.6 °F 81.5 °F 60.8 °F 51% 30.03 in 10.0 mi West 6.9 mph - N/A   Mostly Cloudy
1:55 PM 82.4 °F 83.4 °F 62.6 °F 51% 30.01 in 10.0 mi West 10.4 mph - N/A   Scattered Clouds
2:15 PM 82.4 °F 82.5 °F 59.0 °F 45% 30.00 in 10.0 mi WSW 6.9 mph - N/A   Scattered Clouds
2:35 PM 82.4 °F 82.5 °F 59.0 °F 45% 29.99 in 10.0 mi SW 8.1 mph - N/A   Clear
2:55 PM 82.4 °F 82.5 °F 59.0 °F 45% 29.98 in 10.0 mi SSW 8.1 mph - N/A   Clear
3:15 PM 82.4 °F 82.0 °F 57.2 °F 42% 29.98 in 10.0 mi WSW 5.8 mph - N/A   Clear
3:35 PM 84.2 °F 83.8 °F 59.0 °F 42% 29.98 in 10.0 mi WSW 6.9 mph - N/A   Clear
3:55 PM 84.2 °F 83.8 °F 59.0 °F 42% 29.97 in 10.0 mi SSW 6.9 mph - N/A   Partly Cloudy
4:15 PM 84.2 °F 83.8 °F 59.0 °F 42% 29.97 in 10.0 mi SW 8.1 mph - N/A   Clear
4:35 PM 82.4 °F 82.5 °F 59.0 °F 45% 29.96 in 10.0 mi SW 6.9 mph - N/A   Clear
4:55 PM 82.4 °F 82.5 °F 59.0 °F 45% 29.97 in 10.0 mi Calm Calm - N/A   Clear
5:15 PM 82.4 °F 82.5 °F 59.0 °F 45% 29.97 in 10.0 mi West 4.6 mph - N/A   Clear
5:35 PM 82.4 °F 82.5 °F 59.0 °F 45% 29.97 in 10.0 mi WSW 3.5 mph - N/A   Clear
5:55 PM 82.4 °F 82.5 °F 59.0 °F 45% 29.97 in 10.0 mi West 4.6 mph - N/A   Clear
6:15 PM 78.8 °F - 59.0 °F 51% 29.97 in 10.0 mi Calm Calm - N/A   Clear
6:35 PM 77.0 °F - 59.0 °F 54% 29.98 in 10.0 mi Calm Calm - N/A   Clear
6:55 PM 75.2 °F - 59.0 °F 57% 29.98 in 10.0 mi Calm Calm - N/A   Clear
7:15 PM 69.8 °F - 62.6 °F 78% 29.99 in 10.0 mi Calm Calm - N/A   Partly Cloudy
7:35 PM 69.8 °F - 60.8 °F 73% 29.99 in 10.0 mi Calm Calm - N/A   Scattered Clouds
7:55 PM 68.0 °F - 59.0 °F 73% 29.99 in 10.0 mi Calm Calm - N/A   Partly Cloudy
8:15 PM 66.2 °F - 60.8 °F 83% 30.00 in 10.0 mi Calm Calm - N/A   Clear
8:35 PM 66.2 °F - 60.8 °F 83% 30.01 in 10.0 mi Calm Calm - N/A   Partly Cloudy
8:55 PM 66.2 °F - 62.6 °F 88% 30.01 in 10.0 mi Calm Calm - N/A   Partly Cloudy
9:15 PM 66.2 °F - 62.6 °F 88% 30.02 in 10.0 mi Calm Calm - N/A   Clear
9:35 PM 64.4 °F - 60.8 °F 88% 30.02 in 10.0 mi Calm Calm - N/A   Clear
9:55 PM 66.2 °F - 62.6 °F 88% 30.03 in 10.0 mi Calm Calm - N/A   Partly Cloudy
10:15 PM 66.2 °F - 62.6 °F 88% 30.03 in 10.0 mi Calm Calm - N/A   Scattered Clouds
10:35 PM 62.6 °F - 62.6 °F 100% 30.03 in 10.0 mi Calm Calm - N/A   Scattered Clouds
10:55 PM 62.6 °F - 62.6 °F 100% 30.03 in 10.0 mi Calm Calm - N/A   Partly Cloudy
11:15 PM 62.6 °F - 62.6 °F 100% 30.04 in 10.0 mi Calm Calm - N/A   Clear
11:35 PM 62.6 °F - 62.6 °F 100% 30.03 in 10.0 mi Calm Calm - N/A   Clear
11:55 PM 64.4 °F - 64.4 °F 100% 30.04 in 10.0 mi SSW 3.5 mph - N/A   Clear